TimeAEDT,TemperatureF,Dew PointF,Humidity,Sea Level PressureIn,VisibilityMPH,Wind Direction,Wind SpeedMPH,Gust SpeedMPH,PrecipitationIn,Events,Conditions,WindDirDegrees,DateUTC
12:00 AM,64,35,22,30.09,9,SSW,24.2,,,,Smoke,200,2013-10-17 13:00:00
12:00 AM,64.4,35.6,34,30.09,-9999.0,SSW,24.2,-,N/A,,Clear,200,2013-10-17 13:00:00
12:30 AM,62.6,26.6,26,30.09,-9999.0,SW,24.2,-,N/A,,Clear,230,2013-10-17 13:30:00
1:00 AM,62,27,16,30.11,,SW,25.3,,,,,220,2013-10-17 14:00:00
1:00 AM,62.6,26.6,26,30.09,-9999.0,SW,25.3,-,N/A,,Clear,220,2013-10-17 14:00:00
1:30 AM,60.8,24.8,25,30.12,-9999.0,SW,26.5,-,N/A,,Clear,230,2013-10-17 14:30:00
1:45 AM,60.8,26.6,27,30.12,-9999.0,SW,21.9,33.4,N/A,,Clear,230,2013-10-17 14:45:00
2:00 AM,61,26,15,30.14,,SW,23.0,,,,,230,2013-10-17 15:00:00
2:00 AM,60.8,24.8,25,30.12,-9999.0,SW,23.0,34.5,N/A,,Clear,230,2013-10-17 15:00:00
2:30 AM,60.8,23.0,23,30.15,-9999.0,WSW,17.3,-,N/A,,Clear,250,2013-10-17 15:30:00
3:00 AM,60,22,13,30.17,7,WSW,15.0,,,,Smoke,250,2013-10-17 16:00:00
3:00 AM,59.0,21.2,23,30.15,-9999.0,WSW,15.0,-,N/A,,Clear,250,2013-10-17 16:00:00
3:30 AM,59.0,21.2,23,30.15,-9999.0,WSW,13.8,-,N/A,,Clear,250,2013-10-17 16:30:00
4:00 AM,58,21,13,30.19,,WSW,13.8,,,,,250,2013-10-17 17:00:00
4:00 AM,59.0,21.2,23,30.18,-9999.0,WSW,13.8,-,N/A,,Clear,250,2013-10-17 17:00:00
4:30 AM,59.0,23.0,25,30.18,-9999.0,West,10.4,-,N/A,,Clear,260,2013-10-17 17:30:00
5:00 AM,58,24,15,30.22,,West,11.5,,,,,270,2013-10-17 18:00:00
5:00 AM,57.2,23.0,27,30.21,-9999.0,West,11.5,-,N/A,,Clear,270,2013-10-17 18:00:00
5:30 AM,57.2,23.0,27,30.21,-9999.0,West,13.8,-,N/A,,Clear,260,2013-10-17 18:30:00
6:00 AM,57,24,17,30.23,19,West,12.7,,,,Smoke,260,2013-10-17 19:00:00
6:00 AM,57.2,24.8,29,30.21,-9999.0,West,12.7,-,N/A,,Clear,260,2013-10-17 19:00:00
6:30 AM,57.2,24.8,29,30.24,-9999.0,West,11.5,-,N/A,,Clear,270,2013-10-17 19:30:00
7:00 AM,56,24,17,30.25,,West,12.7,,,,,260,2013-10-17 20:00:00
7:00 AM,55.4,23.0,29,30.24,-9999.0,West,12.7,-,N/A,,Clear,260,2013-10-17 20:00:00
7:30 AM,57.2,26.6,31,30.24,-9999.0,West,10.4,-,N/A,,Clear,260,2013-10-17 20:30:00
8:00 AM,59.0,24.8,27,30.27,-9999.0,WSW,9.2,-,N/A,,Clear,250,2013-10-17 21:00:00
8:30 AM,60.8,28.4,29,30.27,-9999.0,WSW,9.2,-,N/A,,Clear,250,2013-10-17 21:30:00
9:00 AM,63,38,28,30.30,12,SSW,12.7,,,,Smoke,210,2013-10-17 22:00:00
9:00 AM,62.6,39.2,42,30.27,-9999.0,SSW,12.7,-,N/A,,Clear,210,2013-10-17 22:00:00
9:30 AM,64.4,42.8,45,30.30,-9999.0,South,16.1,-,N/A,,Clear,190,2013-10-17 22:30:00
10:00 AM,64,44,36,30.31,,South,15.0,,,,,180,2013-10-17 23:00:00
10:00 AM,64.4,42.8,45,30.30,-9999.0,South,15.0,-,N/A,,Clear,180,2013-10-17 23:00:00
10:30 AM,64.4,42.8,45,30.30,6.2,South,12.7,-,N/A,,Mostly Cloudy,180,2013-10-17 23:30:00
11:00 AM,66,38,24,30.32,,SE,12.7,,,,,130,2013-10-18 00:00:00
11:00 AM,66.2,37.4,35,30.30,6.2,SE,12.7,-,N/A,,Mostly Cloudy,130,2013-10-18 00:00:00
11:30 AM,66.2,39.2,37,30.30,6.2,SSE,11.5,-,N/A,,Mostly Cloudy,150,2013-10-18 00:30:00
12:00 PM,67,39,24,30.32,19,SE,11.5,,,,Partly Cloudy,130,2013-10-18 01:00:00
12:00 PM,66.2,39.2,37,30.30,-9999.0,SE,11.5,-,N/A,,Clear,130,2013-10-18 01:00:00
12:30 PM,68.0,37.4,33,30.30,-9999.0,ESE,12.7,-,N/A,,Clear,120,2013-10-18 01:30:00
1:00 PM,68,38,22,30.30,,SE,12.7,,,,,140,2013-10-18 02:00:00
1:00 PM,68.0,37.4,33,30.30,-9999.0,SE,12.7,-,N/A,,Clear,140,2013-10-18 02:00:00
1:30 PM,66.2,37.4,35,30.27,-9999.0,SE,11.5,-,N/A,,Clear,140,2013-10-18 02:30:00
2:00 PM,67,40,25,30.29,,ESE,15.0,,,,,110,2013-10-18 03:00:00
2:00 PM,68.0,39.2,35,30.27,-9999.0,ESE,15.0,-,N/A,,Clear,110,2013-10-18 03:00:00
2:30 PM,66.2,41.0,40,30.27,6.2,East,10.4,-,N/A,,Scattered Clouds,80,2013-10-18 03:30:00
3:00 PM,68.0,42.8,40,30.27,6.2,East,17.3,-,N/A,,Partly Cloudy,80,2013-10-18 04:00:00
3:30 PM,68.0,42.8,40,30.24,6.2,East,16.1,-,N/A,,Partly Cloudy,80,2013-10-18 04:30:00
4:00 PM,66,43,32,30.27,,ENE,16.1,,,,,70,2013-10-18 05:00:00
4:00 PM,66.2,42.8,43,30.24,6.2,ENE,16.1,-,N/A,,Partly Cloudy,70,2013-10-18 05:00:00
4:30 PM,66.2,42.8,43,30.27,6.2,ENE,16.1,-,N/A,,Partly Cloudy,60,2013-10-18 05:30:00
5:00 PM,66,43,32,30.27,,ENE,16.1,,,,,60,2013-10-18 06:00:00
5:00 PM,66.2,42.8,43,30.27,6.2,ENE,16.1,-,N/A,,Partly Cloudy,60,2013-10-18 06:00:00
5:30 PM,64.4,42.8,45,30.27,6.2,ENE,18.4,-,N/A,,Partly Cloudy,60,2013-10-18 06:30:00
6:00 PM,65,43,34,30.29,19,ENE,17.3,,,,Smoke,60,2013-10-18 07:00:00
6:00 PM,64.4,42.8,45,30.27,6.2,ENE,17.3,-,N/A,,Partly Cloudy,60,2013-10-18 07:00:00
6:30 PM,64.4,44.6,49,30.30,6.2,NE,15.0,-,N/A,,Partly Cloudy,50,2013-10-18 07:30:00
7:00 PM,64,44,37,30.31,,NE,15.0,,,,,50,2013-10-18 08:00:00
7:00 PM,64.4,44.6,49,30.30,6.2,NE,15.0,-,N/A,,Partly Cloudy,50,2013-10-18 08:00:00
7:30 PM,64.4,44.6,49,30.30,6.2,NE,15.0,-,N/A,,Partly Cloudy,50,2013-10-18 08:30:00
8:00 PM,63,44,39,30.32,,NE,13.8,,,,,50,2013-10-18 09:00:00
8:00 PM,62.6,44.6,52,30.30,6.2,NE,13.8,-,N/A,,Partly Cloudy,50,2013-10-18 09:00:00
8:30 PM,62.6,44.6,52,30.33,6.2,NE,11.5,-,N/A,,Partly Cloudy,40,2013-10-18 09:30:00
9:00 PM,64,44,38,30.35,19,NNE,10.4,,,,Smoke,30,2013-10-18 10:00:00
9:00 PM,64.4,44.6,49,30.33,6.2,NNE,10.4,-,N/A,,Partly Cloudy,30,2013-10-18 10:00:00
9:30 PM,62.6,44.6,52,30.33,6.2,NNE,11.5,-,N/A,,Partly Cloudy,30,2013-10-18 10:30:00
10:00 PM,65,45,36,30.35,,NNE,9.2,,,,,30,2013-10-18 11:00:00
10:00 PM,66.2,44.6,46,30.33,-9999.0,NNE,9.2,-,N/A,,Clear,30,2013-10-18 11:00:00
10:30 PM,64.4,44.6,49,30.33,-9999.0,NNE,5.8,-,N/A,,Clear,30,2013-10-18 11:30:00
11:00 PM,64,46,40,30.36,,NNE,5.8,,,,,20,2013-10-18 12:00:00
11:00 PM,64.4,46.4,52,30.33,-9999.0,NNE,5.8,-,N/A,,Clear,20,2013-10-18 12:00:00
11:30 PM,62.6,46.4,55,30.36,-9999.0,NW,5.8,-,N/A,,Clear,310,2013-10-18 12:30:00